N7QNM-13 Weather Reports


time (UTC)temp
C
wind
direction
speed
KPH
gust
KPH
rain 1hr
cm
rain 24hr
cm
rain mn
cm
humidity
%
barometer
mb
20260503210033 29 48 4.8 16.1 0.00 0.00 0.00 31 1010.6
20260503205052 28 252 6.4 12.9 0.00 0.00 0.00 30 1010.8
20260503204033 28 63 1.6 8.0 0.00 0.00 0.00 32 1011.0
20260503203033 28 47 8.0 22.5 0.00 0.00 0.00 34 1011.0
20260503202033 28 75 1.6 9.7 0.00 0.00 0.00 32 1011.1
20260503201033 27 34 4.8 16.1 0.00 0.00 0.00 33 1011.2
20260503200053 27 47 8.0 20.9 0.00 0.00 0.00 35 1011.4
20260503195034 27 44 4.8 19.3 0.00 0.00 0.00 36 1011.5
20260503194055 27 15 3.2 14.5 0.00 0.00 0.00 36 1011.7
20260503193033 27 121 3.2 11.3 0.00 0.00 0.00 36 1011.8
20260503192054 27 43 1.6 8.0 0.00 0.00 0.00 36 1011.9
20260503191034 26 58 3.2 9.7 0.00 0.00 0.00 39 1012.1
20260503190034 26 58 4.8 11.3 0.00 0.00 0.00 38 1012.2
20260503185034 26 64 3.2 9.7 0.00 0.00 0.00 38 1012.2
20260503184034 26 59 3.2 11.3 0.00 0.00 0.00 39 1012.3
20260503183034 26 116 1.6 6.4 0.00 0.00 0.00 38 1012.5
20260503182035 26 256 6.4 12.9 0.00 0.00 0.00 39 1012.5
20260503181034 26 269 4.8 11.3 0.00 0.00 0.00 39 1012.7
20260503180035 25 300 4.8 12.9 0.00 0.00 0.00 39 1012.8
20260503175035 24 291 6.4 14.5 0.00 0.00 0.00 42 1012.8
20260503174035 24 300 6.4 14.5 0.00 0.00 0.00 43 1012.9
20260503173035 23 308 3.2 11.3 0.00 0.00 0.00 44 1013.0
20260503172035 23 266 6.4 14.5 0.00 0.00 0.00 43 1013.1
20260503171036 23 273 6.4 12.9 0.00 0.00 0.00 44 1013.1
20260503131038 8 0.0 0.0 0.00 0.00 0.00 84 1013.0
20260503081042 14 201 3.2 19.3 0.00 0.00 0.00 60 1012.8
20260503072042 15 250 1.6 4.8 0.00 0.00 0.00 61 1012.6
20260503071042 15 277 3.2 6.4 0.00 0.00 0.00 61 1012.4
20260503055103 15 301 1.6 4.8 0.00 0.00 0.00 63 1011.8
20260503054043 15 288 1.6 3.2 0.00 0.00 0.00 61 1011.9
20260503053103 15 282 1.6 4.8 0.00 0.00 0.00 59 1011.8
20260503052103 16 295 1.6 4.8 0.00 0.00 0.00 59 1011.8
20260503051043 16 193 1.6 4.8 0.00 0.00 0.00 58 1011.7
20260503050044 17 200 1.6 6.4 0.00 0.00 0.00 54 1011.7
20260503045047 17 299 0.0 3.2 0.00 0.00 0.00 54 1011.7
20260503044047 18 10 1.6 9.7 0.00 0.00 0.00 53 1011.6
20260503043106 18 291 1.6 3.2 0.00 0.00 0.00 51 1011.5
20260503042104 19 244 1.6 3.2 0.00 0.00 0.00 47 1011.4
20260503041105 20 255 1.6 4.8 0.00 0.00 0.00 46 1011.3
20260503040047 20 168 1.6 8.0 0.00 0.00 0.00 45 1011.2
20260503035046 20 177 1.6 8.0 0.00 0.00 0.00 44 1011.1
20260503034044 21 274 3.2 4.8 0.00 0.00 0.00 46 1010.9
20260503033105 22 256 1.6 4.8 0.00 0.00 0.00 43 1010.7
20260503032046 23 249 3.2 4.8 0.00 0.00 0.00 45 1010.5
20260503031045 24 132 0.0 4.8 0.00 0.00 0.00 42 1010.4
20260503030045 25 146 0.0 3.2 0.00 0.00 0.00 39 1010.3
20260503025105 26 0.0 0.0 0.00 0.00 0.00 37 1010.2
20260503024105 27 214 0.0 1.6 0.00 0.00 0.00 36 1010.1
20260503023046 28 98 0.0 1.6 0.00 0.00 0.00 35 1010.0
20260503022046 28 0.0 0.0 0.00 0.00 0.00 35 1010.0
20260503021106 28 71 0.0 4.8 0.00 0.00 0.00 35 1010.0
20260503020046 28 48 1.6 6.4 0.00 0.00 0.00 35 1009.9
20260503015106 28 40 3.2 11.3 0.00 0.00 0.00 33 1009.9
20260503014046 28 44 4.8 16.1 0.00 0.00 0.00 34 1009.9
20260503013047 28 43 4.8 9.7 0.00 0.00 0.00 33 1009.8
20260503012046 28 47 8.0 16.1 0.00 0.00 0.00 32 1009.8
20260503011046 28 41 6.4 19.3 0.00 0.00 0.00 33 1009.9
20260503010047 28 46 6.4 16.1 0.00 0.00 0.00 32 1009.9
20260503005047 28 43 6.4 19.3 0.00 0.00 0.00 33 1009.9
20260503004107 29 41 6.4 17.7 0.00 0.00 0.00 33 1009.9
20260503003047 29 42 6.4 16.1 0.00 0.00 0.00 33 1010.0
20260503002047 29 51 9.7 19.3 0.00 0.00 0.00 33 1009.9
20260503001047 29 41 6.4 14.5 0.00 0.00 0.00 33 1009.9
20260503000047 28 46 8.0 20.9 0.00 0.00 0.00 32 1010.0
20260502235048 28 41 6.4 16.1 0.00 0.00 0.00 33 1010.1
20260502234047 28 63 8.0 22.5 0.00 0.00 0.00 33 1010.1
20260502233048 28 52 11.3 22.5 0.00 0.00 0.00 32 1010.2
20260502232048 28 42 6.4 14.5 0.00 0.00 0.00 33 1010.2
20260502231048 28 43 11.3 24.1 0.00 0.00 0.00 33 1010.3
20260502230048 29 17 4.8 12.9 0.00 0.00 0.00 33 1010.4
20260502225048 29 19 6.4 17.7 0.00 0.00 0.00 33 1010.5
20260502224108 28 30 4.8 20.9 0.00 0.00 0.00 34 1010.8
20260502223048 28 57 9.7 20.9 0.00 0.00 0.00 35 1010.9
20260502222050 28 62 11.3 24.1 0.00 0.00 0.00 35 1011.0
20260502221048 28 347 4.8 11.3 0.00 0.00 0.00 35 1011.2
20260502220049 28 36 4.8 22.5 0.00 0.00 0.00 35 1011.2
20260502215049 27 17 4.8 16.1 0.00 0.00 0.00 36 1011.3
20260502214109 27 48 8.0 16.1 0.00 0.00 0.00 37 1011.4
20260502213049 27 47 8.0 19.3 0.00 0.00 0.00 37 1011.6
20260502212050 27 48 11.3 24.1 0.00 0.00 0.00 38 1011.6
20260502211049 27 41 6.4 25.7 0.00 0.00 0.00 37 1011.7